FENGYUN 1C DEB, 29767

Orbit data source: Space-Track

FENGYUN 1C DEB, 29767 is space debris in SSO originally from a launch on Mon, 10 May 1999 UTC launched from the Taiyaun Space Center, China (TSC). Fengyun 1C debris stems from the Chinese weather satellite Fengyun-1C, which was intentionally destroyed by a Chinese anti-satellite missile in 2007. This event dramatically increased the amount of space debris, with thousands of trackable fragments posing hazards to satellites and human spaceflight. The Fengyun 1C debris cloud has become a focal point in discussions about space sustainability and the need for international regulations to prevent the creation of new debris.

Loading next visibility...
Identifier
29767, 1999-025BH
Orbit
SSO
Country
Flag of CNCN / PRC
Related business
Manufacturer
Unknown
Mission
Spacecraft
Bus & Motor
Unknown
Mass
Unknown
Launch date (UTC)
1999-05-10 (27 years ago)
Launch vehicle
Unknown
Launch site
Taiyaun Space Center, China (TSC)
Object type
Payload
Rocket body
Debris
Shape & HBR
Unknown shape, 0.1 m
Radar Cross Section
Small (<0.1 m²)

Expand to show TLE details & history
Last TLE update: 1 week ago

TLE from 1 week ago
0 FENGYUN 1C DEB
1 29767U 99025BH  26152.34719898  .00003365  00000-0  13173-2 0  9995
2 29767  98.2118 109.9882 0324722 294.8298 221.7213 14.05045033979942
Epoch: 2026-06-01T08:19Z
TLE epoch observation values (Epoch: 2026-06-01T08:19:57.991Z)
Latitude
25.59721°
Longitude
-80.89531°
Altitude
1,058.605 km
Speed
7.234 km/s
True Right ascension
19h 35m 43s
True Declination
25° 28' 08"
Sunlit
Object was in daylight at epoch
Visualization orbit readout
Latitude
Unknown
Longitude
Unknown
Altitude
Unknown
Speed
Unknown
Apparent Right ascension
Unknown
Apparent Declination
Unknown
Sunlit
N/A
Visualization observer readout
Local Sidereal Time
00:25:22
Azimuth
Unknown
Elevation
Unknown
Doppler factor
Unknown
Orbital elements
Apogee altitude
1,109.006 km
Perigee altitude
638.051 km
Semi-major axis
7,251.665 km
Eccentricity
0.03247
Inclination
98.2118°
RAAN
109.9882°
Arg. of periapsis
294.8298°
True anomaly
219.31852°
Mean anomaly
221.7213°
Eccentric anomaly
220.51268°
Mean motion
3.51469 °/min
Orbital period
102.43 mins
BSTAR
0.0013173
Loading maneuver chart data...
Computing Atmospheric mass density...
Loading historical data...
Loading historical data...
Loading historical data...
Loading historical data...
Loading historical data...
Loading historical data...
Loading historical data...

Documentation

Showing up to 5 results
|